Погода в Куркачах

Россия / Республика Татарстан     56°00′06″N   49°36′22″E
темп.,
°C
ветер,
м/с
пор.,
м/с
влажн.,
%
обл.,
%
осадки,
мм/ч
давл.,
гПа
погр.,
м
15 апреля, чт
чт1500:00+10ю33865 0.0 102333
03:00+8ююв22861 0.0 102217
06:00+9ю35914 0.0 102298
09:00+14ю46690 0.0 1021377
12:00+18ююз35530 0.0 1020968
15:00+18ююз34450 0.0 10191503
18:00+16ю22560 0.0 101814
21:00+13ю116389 0.0 101910
16 апреля, пт
пт1600:00+10ссв46825 0.0 102091
03:00+8св6992100 0.0 1021374
06:00+8св61086100 0.0 1022547
09:00+10всв787343 0.0 1023665
12:00+12св776453 0.0 1023907
15:00+12св776041 0.0 1024861
18:00+10св596148 0.0 1024464
21:00+7св5116841 0.0 1025300
17 апреля, сб
сб1700:00+6св5117339 0.0 1025282
03:00+4св5117228 0.0 1026283
06:00+3св511681 0.0 1027308
09:00+8св68470 0.0 1027665
12:00+11св67350 0.0 10261174
15:00+12св66360 0.0 10261371
18:00+9ссв47490 0.0 1025196
21:00+5ссв39660 0.0 1026172
18 апреля, вс
вс1800:00+4ссв35730 0.0 102677
03:00+2ссв35760 0.0 102677
06:00+3с37760 0.0 1026194
09:00+8с57550 0.0 1025834
12:00+11ссв784879 0.0 10251877
15:00+7ссв895899 0.0 10271280
18:00+5ссв610432 0.0 1029926
21:00+2св410563 0.0 1031292
19 апреля, пн
пн1900:000св411580 0.0 1033287
03:00−1св410620 0.0 1035290
06:000св58550 0.0 1037429
09:00+3всв45435 0.0 10381426
12:00+5всв44375 0.0 10381638
15:00+6всв33345 0.0 10371725
18:00+5всв22441 0.0 103836
21:00+2всв22480 0.0 103811